This is the latest recevied weather packets stored in our database for station/object K5IDL. If no packets are shown the sender has not sent any weather packets the latest 1 day(s).
| Time | Temp. | Humidity | Pressure | Rain* | Wind** | Luminosity | Snow |
|---|---|---|---|---|---|---|---|
| 1777977714 | 22.22° C | 84% | 1004.4 hPa | 0 mm | 0 m/s | 0 W/m² | - |
| 1777977410 | 22.22° C | 84% | 1004.3 hPa | 0 mm | 0.89 m/s, 293° | 0 W/m² | - |
| 1777977108 | 22.22° C | 83% | 1004.4 hPa | 0 mm | 0.45 m/s, 344° | 0 W/m² | - |
| 1777976805 | 22.22° C | 83% | 1004.3 hPa | 0 mm | 0.45 m/s, 259° | 0 W/m² | - |
| 1777976502 | 22.22° C | 83% | 1004.4 hPa | 0 mm | 0.45 m/s, 256° | 0 W/m² | - |
| 1777976201 | 22.22° C | 83% | 1004.6 hPa | 0 mm | 0.45 m/s, 99° | 0 W/m² | - |
| 1777975897 | 22.22° C | 83% | 1004.5 hPa | 0 mm | 0 m/s | 0 W/m² | - |
| 1777975593 | 22.22° C | 83% | 1004.4 hPa | 0 mm | 1.34 m/s, 218° | 0 W/m² | - |
| 1777975290 | 22.22° C | 83% | 1004.6 hPa | 0 mm | 0.89 m/s, 2° | 0 W/m² | - |
| 1777974986 | 22.22° C | 83% | 1004.5 hPa | 0 mm | 0 m/s | 0 W/m² | - |
| 1777974683 | 22.22° C | 83% | 1004.5 hPa | 0 mm | 0.89 m/s, 242° | 0 W/m² | - |
| 1777974380 | 22.22° C | 83% | 1004.6 hPa | 0 mm | 0.89 m/s, 336° | 0 W/m² | - |
| 1777974076 | 22.22° C | 84% | 1004.8 hPa | 0 mm | 0 m/s | 0 W/m² | - |
| 1777973772 | 22.22° C | 84% | 1004.6 hPa | 0 mm | 0.45 m/s, 332° | 0 W/m² | - |
| 1777973470 | 22.22° C | 84% | 1004.8 hPa | 0 mm | 0 m/s | 0 W/m² | - |
| 1777973167 | 22.22° C | 84% | 1004.8 hPa | 0 mm | 0 m/s | 0 W/m² | - |
| 1777972866 | 22.22° C | 84% | 1005 hPa | 0 mm | 0.89 m/s, 158° | 0 W/m² | - |
| 1777972562 | 22.22° C | 84% | 1005 hPa | 0 mm | 0.89 m/s, 28° | 0 W/m² | - |
| 1777972260 | 22.22° C | 84% | 1005.2 hPa | 0 mm | 0 m/s | 0 W/m² | - |
| 1777971958 | 21.67° C | 84% | 1005 hPa | 0 mm | 0.45 m/s, 270° | 0 W/m² | - |
| 1777971655 | 21.67° C | 84% | 1005 hPa | 0 mm | 0.45 m/s, 357° | 0 W/m² | - |
| 1777971353 | 21.67° C | 84% | 1004.9 hPa | 0 mm | 0.89 m/s, 265° | 0 W/m² | - |
| 1777971051 | 21.67° C | 84% | 1004.8 hPa | 0 mm | 0.89 m/s, 36° | 0 W/m² | - |
| 1777970749 | 21.67° C | 84% | 1004.9 hPa | 0 mm | 0.45 m/s, 69° | 0 W/m² | - |
| 1777970447 | 21.67° C | 85% | 1004.9 hPa | 0 mm | 0 m/s | 0 W/m² | - |
* Rain latest hour (hover to see other rain measurements)
** Current wind speed in m/s (hover to see current wind gust speed)